Location: Łódź
(51.7951°N, 19.4477°E)
Time: 06:48:52
(UTC+01:00)

ISS - Pass Details

Date: 26 January 2019
Orbit: 403 x 411 km, 51.6° (Epoch: 22 February)

Event Time Altitude Azimuth Distance (km) Brightness Sun altitude
Rises 17:36:46 0° 220° (SW) 2,325 1.0 -11.9°
Reaches altitude 10° 17:39:01 10° 208° (SSW) 1,470 -0.4 -12.2°
Maximum altitude 17:41:51 26° 149° (SSE) 837 -2.4 -12.6°
Enters shadow 17:43:19 19° 108° (ESE) 1,048 -2.2 -12.8°
